SCP
1 1 1 1 1 1 1 1 1 1 1 1 1 1 1 1 1 1 1 1 0 0 1 0 0 0 0 0 0 0 0 0 0 0 0 0 0 0 0 0 0 0 0
1 1 1 1 1 1 1 1 1 1 1 1 1 1 1 0 1 0 0 0 0 0 0 0 0 0 0 0 0 0 0 0 0 0 0 0 0 0 0 0 0 0 0
1 1 1 1 1 1 1 1 1 1 1 1 1 1 0 0 0 0 0 0 0 0 0 0 0 0 0 0 0 0 0 0 0 0 0 0 0 0 0 0 0 0 0
2 1 1 1 1 1 1 1 1 1 1 1 1 1 1 0 0 0 0 0 0 0 0 0 0 0 0 0 0 0 0 0 0 0 0 0 0 0 0 0 0 0 0
2 1 1 1 1 1 1 1 1 1 1 1 1 1 1 0 0 0 0 0 0 0 0 0 0 0 0 0 0 0 0 0 0 0 0 0 0 0 0 0 0 0 0
2 1 1 1 1 1 1 1 1 1 1 1 1 1 1 0 0 0 0 0 0 0 0 0 0 0 0 0 0 0 0 0 0 0 0 0 0 0 0 0 0 0 0
2 1 1 1 1 1 1 1 1 1 1 1 1 1 0 0 0 0 0 0 0 0 0 0 0 0 0 0 0 0 0 0 0 0 0 0 0 0 0 0 0 0 0
2 1 1 1 1 1 1 1 1 1 1 1 0 0 0 0 0 0 0 0 0 0 0 0 0 0 0 0 0 0 0 0 0 0 0 0 0 0 0 0 0 0 0
1 1 1 1 1 1 1 1 1 1 1 1 0 0 0 0 0 0 0 0 0 0 0 0 0 0 0 0 0 0 0 0 0 0 0 0 0 0 0 0 0 0 0
1 1 1 1 1 1 1 1 1 1 1 1 0 0 0 0 0 0 0 0 0 0 0 0 0 0 0 0 0 0 0 0 0 0 0 0 0 0 0 0 0 0 0
1 1 1 1 1 1 1 1 1 1 1 1 0 0 0 0 0 0 0 0 0 0 0 0 0 0 0 0 0 0 0 0 0 0 0 0 0 0 0 0 0 0 0
1 1 1 1 1 1 1 1 1 1 1 1 1 0 0 0 0 0 0 0 0 1 1 0 0 0 0 0 0 0 0 0 0 0 0 0 0 0 0 0 0 0 0
1 1 1 1 1 1 1 1 1 1 1 1 1 1 0 0 0 0 0 0 1 1 1 0 0 0 0 0 0 0 0 0 0 0 0 0 0 0 0 0 0 0 0
1 1 1 1 1 1 1 1 1 1 1 1 1 1 0 0 0 0 0 0 0 0 0 0 0 0 0 0 0 0 0 0 0 0 0 0 0 0 0 0 0 0 0
1 1 2 1 1 1 1 1 1 1 1 1 1 1 0 0 0 0 0 0 0 0 0 0 0 0 0 0 0 0 0 0 0 0 0 0 0 0 0 0 0 0 0
2 2 2 1 1 1 1 1 1 1 1 1 1 1 0 0 0 0 0 0 0 0 0 0 0 0 0 0 0 0 0 0 0 0 0 0 0 0 0 0 0 0 0
3 2 2 2 1 2 2 2 1 1 1 1 1 1 0 0 0 0 0 0 0 0 0 0 0 0 0 0 0 0 0 0 0 0 0 0 0 0 0 0 0 0 0
3 2 2 2 2 2 2 2 2 1 1 1 1 1 0 0 0 0 0 0 0 0 0 0 0 0 0 0 0 0 0 0 0 0 0 0 0 0 0 0 0 0 0
3 3 2 2 2 2 2 2 2 1 1 1 1 0 0 0 0 0 0 0 0 0 0 0 0 0 0 0 0 0 0 0 0 0 0 0 0 0 0 0 0 0 0
4 3 3 2 2 2 2 2 1 1 1 1 1 0 0 0 0 0 0 0 0 0 0 0 0 0 0 0 0 0 0 0 0 0 0 0 0 0 0 0 0 0 0
5 4 4 3 2 2 2 2 1 1 1 1 1 0 0 0 0 0 0 0 0 0 0 0 0 0 0 0 0 0 0 0 0 0 0 0 0 0 0 0 0 0 0
6 5 5 4 3 3 3 2 2 2 1 1 1 1 1 1 1 0 0 0 0 0 0 0 0 0 0 0 0 0 0 0 0 0 0 0 0 0 0 0 0 0 0
6 6 6 5 4 4 4 4 3 2 2 1 1 1 1 1 1 1 1 0 0 0 0 0 0 0 0 0 0 0 0 0 0 0 0 0 0 0 0 0 0 0 0
5 6 7 6 5 5 5 5 5 4 3 2 2 1 1 1 1 1 1 1 1 0 0 0 0 0 0 0 0 0 0 0 0 0 0 0 0 0 0 0 0 0 0
4 5 6 7 5 5 6 6 6 6 5 3 2 2 2 2 1 1 1 1 1 1 0 0 0 0 0 0 0 0 0 0 0 0 0 0 0 0 0 0 0 0 0
4 4 5 7 6 5 6 7 7 6 5 3 2 2 2 2 2 1 1 1 1 1 0 0 0 0 0 0 0 0 0 0 0 0 0 0 0 0 0 0 0 0 0
Wind_Speed
7 9 17 17 17 17 18 18 18 18 18 18 18 17 17 16 15 14 14 13 14 14 14 14 14 15 15 15 15 15 15 15 15 16 16 16 16 16 16 16 15 12 17
12 12 18 17 17 17 18 18 18 18 17 17 17 17 16 15 15 14 14 14 14 14 14 14 15 15 15 16 15 15 15 15 15 15 16 15 16 15 15 15 14 11 16
15 11 15 18 17 17 17 17 17 17 17 17 16 16 15 15 15 14 14 14 14 14 14 14 14 15 15 15 15 14 14 14 15 16 14 10 11 14 14 15 15 15 15
15 11 13 18 18 17 17 17 16 16 16 16 16 15 15 14 14 14 14 13 13 14 14 14 14 15 15 14 14 14 14 15 15 14 8 8 9 13 14 14 14 15 15
12 10 13 20 18 17 17 16 16 16 16 15 15 14 14 14 14 14 13 13 13 13 14 14 14 14 14 14 13 13 13 14 15 12 8 7 7 12 14 14 14 14 14
11 9 13 20 18 17 17 16 15 15 15 15 14 14 14 13 13 13 13 13 13 13 13 13 14 14 13 12 12 12 12 14 12 8 8 7 7 11 13 13 13 13 13
11 8 11 19 18 17 16 16 15 15 15 14 14 13 13 13 13 13 13 13 12 13 13 13 13 13 12 11 11 12 13 14 9 8 7 6 7 11 12 12 12 12 12
13 10 11 18 18 17 16 16 15 15 14 14 14 13 12 12 12 12 12 12 12 12 12 12 12 11 11 10 10 12 13 13 10 8 7 6 8 10 12 12 12 12 11
10 9 8 10 13 16 16 15 15 14 14 14 13 13 13 12 12 12 11 11 11 11 11 11 11 11 10 9 10 11 12 12 8 6 7 5 8 10 11 11 11 11 10
8 8 7 7 7 8 9 15 15 14 14 13 13 13 13 12 12 11 10 10 11 10 10 11 10 10 9 9 10 11 12 10 6 6 4 5 9 10 11 10 10 10 10
10 7 7 7 7 6 6 11 12 13 13 12 11 13 10 5 5 6 8 10 10 10 10 10 9 9 8 8 9 11 10 4 6 4 4 7 9 10 10 9 9 9 9
14 11 8 8 7 7 7 6 4 5 5 5 4 6 4 4 4 5 7 9 9 9 9 8 8 8 6 4 6 8 4 6 5 4 4 9 9 9 9 9 8 8 8
14 13 10 9 8 7 4 5 3 3 3 4 5 5 5 4 3 3 2 3 4 5 4 5 5 4 4 3 3 4 5 4 3 3 4 8 8 9 9 9 8 8 7
13 13 11 9 8 7 5 5 4 3 3 3 4 6 4 3 3 2 2 2 2 2 3 3 3 3 3 3 4 5 5 4 3 2 3 8 7 7 8 8 7 7 7
14 13 12 11 9 7 6 5 5 4 4 4 4 4 5 3 3 3 2 2 2 2 3 3 3 3 3 3 3 5 5 5 4 3 3 7 7 7 7 8 7 7 7
14 13 12 12 10 8 6 5 5 4 4 4 4 5 5 4 3 3 3 2 2 2 2 2 3 3 2 2 3 3 4 4 4 3 2 4 7 6 7 7 7 7 7
14 12 12 12 10 9 8 7 5 5 5 4 4 5 5 5 4 4 3 3 2 2 3 3 3 2 2 2 3 3 3 3 3 3 3 2 2 5 6 7 7 7 7
13 13 13 13 12 10 8 7 5 5 5 4 4 4 6 6 5 4 3 3 3 3 3 3 2 2 2 2 2 1 2 2 3 3 2 2 2 2 4 7 6 6 7
13 14 14 12 12 11 9 6 6 5 5 5 4 4 5 6 6 5 4 3 4 3 2 3 2 2 2 2 2 1 1 1 2 3 3 3 3 2 2 4 6 6 7
12 12 13 11 11 10 7 6 5 5 5 4 5 5 6 6 7 5 4 4 4 3 3 2 3 2 2 2 2 2 1 0 1 2 3 3 3 4 3 3 3 4 7
11 12 12 12 12 10 8 8 7 7 6 5 5 7 7 7 7 6 4 4 4 4 4 4 3 3 2 2 3 2 2 1 1 1 2 2 3 4 4 4 3 3 3
14 13 13 12 12 12 10 8 5 5 5 5 5 6 7 7 7 7 6 5 5 4 4 4 3 3 2 2 3 2 1 2 2 1 2 3 4 3 4 5 5 4 4
12 14 13 13 13 12 10 6 5 3 3 4 5 6 7 8 8 7 7 6 6 5 5 5 5 5 3 1 1 3 3 3 2 2 1 2 3 3 4 4 5 6 5
11 11 11 12 12 12 12 10 11 9 7 7 6 6 7 8 8 8 8 7 7 5 5 5 5 4 4 3 1 1 1 3 2 1 2 1 2 4 4 4 5 5 6
8 9 9 10 11 12 12 13 13 9 7 5 5 7 7 7 7 8 8 7 7 5 6 6 5 5 4 4 3 2 2 1 1 2 2 2 2 2 3 4 4 4 5
7 8 9 10 11 11 13 13 13 13 10 9 9 8 7 5 6 8 8 7 7 6 6 6 6 6 4 4 3 3 3 3 3 3 2 2 2 2 2 3 4 4 4
Wind_Direction
154 156 147 140 133 127 123 120 119 118 119 120 122 122 122 121 120 117 113 112 110 108 106 105 105 107 109 110 110 110 111 112 111 110 108 106 104 103 104 103 101 100 103
146 152 148 143 136 131 127 124 122 121 121 122 123 123 124 123 121 118 117 115 112 109 108 107 106 107 108 109 110 111 112 112 112 111 108 106 106 104 105 104 104 105 105
143 148 148 145 140 134 130 128 126 125 124 124 125 125 124 123 122 120 118 115 113 112 110 109 108 108 109 110 111 111 111 109 108 104 100 99 105 107 106 106 106 106 105
143 144 147 147 142 138 134 131 130 129 128 127 127 126 125 124 123 121 119 116 115 114 113 112 111 111 111 111 111 110 110 109 106 102 94 100 106 110 108 107 107 107 106
141 142 153 148 146 142 139 136 134 133 132 131 129 129 128 126 125 122 120 118 117 116 115 115 114 113 113 113 113 113 113 112 107 99 94 93 99 111 110 108 107 107 107
140 144 156 150 148 146 143 140 139 137 136 134 132 132 130 129 127 125 123 120 119 118 116 116 116 116 117 116 118 120 119 113 105 99 97 100 104 112 111 109 109 107 106
142 147 155 152 151 150 147 145 144 142 140 139 136 135 133 132 131 129 126 123 121 119 118 119 119 118 119 119 118 119 119 117 108 103 100 102 108 112 112 110 109 108 107
147 147 152 156 154 154 152 150 149 147 145 143 141 139 138 136 133 130 128 126 123 121 121 121 120 119 118 118 121 122 122 121 116 112 107 109 116 115 115 113 112 111 110
146 145 149 154 157 157 156 154 152 151 149 147 146 142 139 137 135 134 130 128 127 124 123 123 121 119 116 116 123 127 128 123 116 118 119 114 120 119 118 118 117 115 113
145 146 146 147 148 151 156 159 157 155 154 152 149 146 144 142 139 136 131 133 131 129 126 124 121 119 118 118 124 128 128 120 115 116 116 126 127 126 123 122 120 118 117
158 155 149 147 144 142 150 165 161 160 160 157 154 151 142 119 118 127 138 140 136 133 128 123 120 117 115 120 128 129 123 118 122 120 124 138 137 133 130 128 127 123 121
169 168 159 153 149 148 161 153 146 147 147 137 129 126 111 110 121 130 151 146 140 132 125 117 113 108 96 95 114 114 117 128 126 131 142 146 146 142 139 137 135 133 131
170 170 166 160 155 155 151 143 136 126 126 124 123 119 119 114 115 109 107 117 112 107 91 94 89 87 96 101 103 114 130 132 134 143 153 153 153 152 148 147 146 145 143
172 175 168 165 161 159 151 148 142 138 138 138 136 134 131 128 121 119 108 101 89 88 93 85 91 97 105 113 125 130 137 140 142 141 164 162 160 160 157 157 156 156 155
176 176 172 169 168 164 154 157 156 149 148 146 142 145 144 144 142 133 124 116 112 108 109 106 98 103 115 118 132 142 150 153 151 153 164 171 167 169 170 170 170 170 168
179 178 175 175 172 166 164 161 155 152 149 149 154 156 155 151 148 142 139 135 132 127 117 115 114 113 117 121 131 144 151 153 153 158 164 180 182 181 183 184 184 183 183
178 177 178 178 174 171 168 167 159 157 156 163 163 164 166 162 158 152 152 154 151 134 120 108 104 102 115 116 124 140 147 160 161 168 171 176 188 196 197 197 196 196 197
174 176 181 184 179 177 171 168 161 163 165 170 169 171 177 174 165 157 162 167 155 139 130 125 115 103 100 109 116 126 138 155 170 176 179 187 192 205 211 209 205 203 205
179 178 181 183 180 179 173 168 165 166 173 173 172 175 182 179 170 166 170 168 153 144 145 146 114 117 126 127 126 110 124 163 179 192 198 204 205 209 217 225 221 214 217
181 180 181 180 179 174 168 161 161 172 177 174 180 180 178 180 175 169 169 167 156 146 148 138 122 100 109 123 105 73 38 342 206 215 215 210 213 218 218 228 230 230 231
180 182 183 183 178 174 176 177 180 187 184 184 188 181 181 182 177 173 176 166 163 163 165 151 129 121 105 108 89 49 13 10 284 235 224 220 223 223 220 225 224 227 238
185 187 186 187 183 182 187 182 182 175 179 185 185 182 184 184 180 184 177 175 171 159 159 158 145 134 125 137 130 110 38 345 326 260 221 222 227 221 226 227 221 221 227
189 190 190 190 189 186 179 163 155 139 137 168 183 186 189 186 185 185 182 175 173 168 175 176 164 154 154 146 142 145 154 210 276 311 264 235 226 220 229 231 227 224 222
193 190 190 189 190 185 176 175 176 180 186 190 185 184 182 186 187 186 181 178 176 175 176 180 170 162 151 158 151 124 146 155 157 271 311 281 248 233 231 231 233 229 224
188 189 188 188 191 187 183 185 185 187 187 173 171 176 180 185 188 188 181 178 178 179 179 175 167 169 165 162 162 154 137 108 131 157 246 289 284 248 235 232 235 234 228
183 186 183 187 194 189 187 189 190 187 180 173 178 183 184 182 186 188 182 181 182 180 181 179 175 175 178 169 167 165 164 164 178 171 196 237 261 277 261 241 234 235 231